SCP
0 0 0 0 0 0 0 0 0 0 0 0 0 0 0 0 0 0 0 0 0 0 0 0 0 0 0 0 0 0 0 0 0 0 0 0 0 0 0 0 0 0 0
0 0 0 0 0 0 0 0 0 0 0 0 0 0 0 0 0 0 0 0 0 0 0 0 0 0 0 0 0 0 0 0 0 0 0 0 0 0 0 0 0 0 0
0 0 0 0 0 0 0 0 0 0 0 0 0 0 0 0 0 0 0 0 0 0 0 0 0 0 0 0 0 0 0 0 0 0 0 0 0 0 0 0 0 0 0
0 0 0 0 0 0 0 0 0 0 0 0 0 0 0 0 0 0 0 0 0 0 0 0 0 0 0 0 0 0 0 0 0 0 0 0 0 0 0 0 0 0 0
0 0 0 0 0 0 0 0 0 0 0 0 0 0 0 0 0 0 0 0 0 0 0 0 0 0 0 0 0 0 0 0 0 0 0 0 0 0 0 0 0 0 0
0 0 0 0 0 0 0 0 0 0 0 0 0 0 0 0 0 0 0 0 0 0 0 0 0 0 0 0 0 0 0 0 0 0 0 0 0 0 0 0 0 0 0
0 0 0 0 0 0 0 0 0 0 0 0 0 0 0 0 0 0 0 0 0 0 0 0 0 0 0 0 0 0 0 0 0 0 0 0 0 0 0 0 0 0 0
0 0 0 0 0 0 0 0 0 0 0 0 0 0 0 0 0 0 0 0 0 0 0 0 0 0 0 0 0 0 0 0 0 0 0 0 0 0 0 0 0 0 0
0 0 0 0 0 0 0 0 0 0 0 0 0 0 0 0 0 0 0 0 0 0 0 0 0 0 0 0 0 0 0 0 0 0 0 0 0 0 0 0 0 0 0
0 0 0 0 0 0 0 0 0 0 0 0 0 0 0 0 0 0 0 0 0 0 0 0 0 0 0 0 0 0 0 0 0 0 0 0 0 0 0 0 0 0 0
0 0 0 0 0 0 0 0 0 0 0 0 0 0 0 0 0 0 0 0 0 0 0 0 0 0 0 0 0 0 0 0 0 0 0 0 0 0 0 0 0 0 0
0 0 0 0 0 0 0 0 0 0 0 0 0 0 0 0 0 0 0 0 0 0 0 0 0 0 0 0 0 0 0 0 0 0 0 0 0 0 0 0 0 0 0
0 0 0 0 0 0 0 0 0 0 0 0 0 0 0 0 0 0 0 0 0 0 0 0 0 0 0 0 0 0 0 0 0 0 0 0 0 0 0 0 0 0 0
0 0 0 0 0 0 0 0 0 0 0 0 0 0 0 0 0 0 0 0 0 0 0 0 0 0 0 0 0 0 0 0 0 0 0 0 0 0 0 0 0 0 0
0 0 0 0 0 0 0 0 0 0 0 0 0 0 0 0 0 0 0 0 0 0 0 0 0 0 0 0 0 0 0 0 0 0 0 0 0 0 0 0 0 0 0
0 0 0 0 0 0 0 0 0 0 0 0 0 0 0 0 0 0 0 0 0 0 0 0 0 0 0 0 0 0 0 0 0 0 0 0 0 0 0 0 0 0 0
0 0 0 0 0 0 0 0 0 0 0 0 0 0 0 0 0 0 0 0 0 0 0 0 0 0 0 0 0 0 0 0 0 0 0 0 0 0 0 0 0 0 0
0 0 0 0 0 0 0 0 0 0 0 0 0 0 0 0 0 0 0 0 0 0 0 0 0 0 0 0 0 0 0 0 0 0 0 0 0 0 0 0 0 0 0
0 0 0 0 0 0 0 0 0 0 0 0 0 0 0 0 0 0 0 0 0 0 0 0 0 0 0 0 0 0 0 0 0 0 0 0 0 0 0 0 0 0 0
0 0 0 0 0 0 0 0 0 0 0 0 0 0 0 0 0 0 0 0 0 0 0 0 0 0 0 0 0 0 0 0 0 0 0 0 0 0 0 0 0 0 0
0 0 0 0 0 0 0 0 0 0 0 0 0 0 0 0 0 0 0 0 0 0 0 0 0 0 0 0 0 0 0 0 0 0 0 0 0 0 0 0 0 0 0
0 0 0 0 0 0 0 0 0 0 0 0 0 0 0 0 0 0 0 0 0 0 0 0 0 0 0 0 0 0 0 0 0 0 0 0 0 0 0 0 0 0 0
0 0 0 0 0 0 0 0 0 0 0 0 0 0 0 0 0 0 0 0 0 0 0 0 0 0 0 0 0 0 0 0 0 0 0 0 0 0 0 0 0 0 0
0 0 0 0 0 0 0 0 0 0 0 0 0 0 0 0 0 0 0 0 0 0 0 0 0 0 0 0 0 0 0 0 0 0 0 0 0 0 0 0 0 0 0
0 0 0 0 0 0 0 0 0 0 0 0 0 0 0 0 0 0 0 0 0 0 0 0 0 0 0 0 0 0 0 0 0 0 0 0 0 0 0 0 0 0 0
0 0 0 0 0 0 0 0 0 0 0 0 0 0 0 0 0 0 0 0 0 0 0 0 0 0 0 0 0 0 0 0 0 0 0 0 0 0 0 0 0 0 0
Wind_Speed_500mb
28 25 24 23 20 18 16 11 9 9 7 6 6 6 7 6 10 13 15 16 16 20 27 30 30 27 27 24 22 19 14 9 4 8 4 3 2 3 4 11 9 14 15
30 29 28 25 25 23 19 16 14 12 11 9 9 10 10 10 8 10 17 20 23 23 30 31 32 30 30 28 27 25 19 15 8 6 8 6 5 3 3 4 4 5 10
34 32 30 28 27 26 23 19 17 16 14 13 15 15 16 14 12 14 16 21 26 29 33 39 29 30 29 29 29 27 26 22 18 13 12 9 11 5 5 2 4 0 3
38 37 35 32 31 29 26 23 21 19 18 18 18 19 21 22 22 21 23 24 25 30 29 34 30 28 28 29 31 30 28 28 25 20 18 17 18 13 10 10 7 4 3
42 40 36 36 35 32 30 27 25 24 23 22 23 24 26 29 28 31 31 33 32 28 28 37 37 33 29 30 30 32 32 30 29 27 25 25 23 19 17 16 13 10 6
46 45 43 41 40 38 35 31 30 30 29 25 29 32 32 30 32 34 34 37 38 36 33 39 40 42 41 37 35 35 35 35 32 31 30 31 27 27 26 22 18 13 12
52 50 47 46 45 44 38 36 36 36 36 35 33 38 39 39 40 42 43 41 36 37 43 48 49 50 52 48 44 43 41 35 35 33 34 32 32 32 28 25 21 18 19
58 55 53 52 50 48 45 45 44 42 42 41 34 32 25 30 38 33 35 35 36 39 44 49 53 58 60 60 57 54 49 40 38 36 33 32 35 35 31 29 27 26 24
62 62 58 57 55 53 55 51 50 49 48 47 44 36 17 17 22 34 33 36 43 44 48 54 58 61 63 67 66 65 59 51 46 42 45 39 41 40 36 35 32 28 26
69 67 62 61 60 60 60 58 56 55 53 54 54 54 55 55 37 38 41 43 55 64 63 63 67 71 71 75 75 74 68 70 63 57 46 47 46 45 43 39 38 33 31
68 67 66 65 66 65 63 62 62 60 62 61 61 58 59 59 62 67 68 68 58 75 75 72 77 78 82 84 85 80 82 89 84 67 56 57 53 50 47 46 43 38 34
70 71 69 70 71 69 69 66 65 66 66 66 66 66 67 56 51 62 70 79 75 66 63 77 73 70 68 73 73 73 75 81 87 77 62 68 58 57 52 50 48 44 39
80 76 75 75 72 68 68 68 69 72 71 70 69 71 71 73 70 71 75 78 70 73 78 81 73 70 65 65 53 52 61 73 75 79 67 71 63 61 59 50 49 48 43
80 71 73 71 68 67 65 65 67 67 67 67 67 70 67 67 65 65 70 72 77 77 71 74 65 60 54 57 45 52 51 56 69 77 72 71 68 56 59 57 54 51 48
77 75 67 61 62 62 63 63 63 60 60 60 62 56 53 51 52 56 64 62 68 63 63 63 65 59 64 55 57 54 50 54 57 70 69 78 66 60 58 58 59 57 54
75 70 63 59 58 59 58 57 58 56 56 54 47 49 54 54 55 58 57 56 51 59 74 67 67 73 65 59 68 57 56 53 54 61 69 80 65 61 57 60 60 56 57
72 67 60 58 56 55 55 55 55 52 51 47 52 56 57 53 54 48 47 52 47 51 64 66 70 69 68 68 62 58 51 51 58 60 63 71 62 64 53 56 62 56 55
69 63 61 59 57 56 56 57 54 49 53 54 53 55 55 49 50 55 52 63 56 54 55 65 72 72 72 69 60 53 57 56 51 50 49 58 67 63 51 60 63 54 59
71 67 64 63 61 59 57 54 51 55 56 58 51 57 55 54 54 57 58 66 65 61 66 71 75 73 65 59 65 65 60 55 54 49 50 60 66 63 58 63 64 60 59
70 69 67 65 63 61 58 57 57 58 56 55 56 58 59 61 53 56 61 62 62 68 69 68 63 64 64 61 51 48 49 48 46 46 46 53 60 60 62 69 63 63 58
71 69 67 66 65 64 61 58 56 57 56 56 55 55 56 55 66 63 60 59 57 60 57 57 61 57 48 46 45 46 45 42 42 45 43 54 63 65 68 70 68 69 61
68 68 69 67 62 61 60 56 55 52 53 53 56 54 54 53 56 51 47 40 31 26 26 35 44 48 49 44 40 42 40 40 43 39 44 51 59 68 70 75 73 74 64
66 64 62 60 59 60 60 58 57 56 54 47 44 44 47 45 44 39 31 26 23 27 32 36 42 43 44 40 42 41 37 36 39 42 41 43 52 68 67 69 71 77 69
60 59 58 58 59 57 51 44 42 41 40 41 41 41 40 37 32 28 29 28 30 33 35 39 43 40 38 35 36 35 32 32 35 39 42 54 53 61 65 69 65 77 73
56 55 54 53 50 47 45 42 39 39 40 39 37 33 29 28 25 21 23 25 29 33 32 31 28 27 28 27 24 24 26 30 35 40 44 51 50 58 58 56 58 63 64
52 52 51 48 46 46 44 42 37 36 37 33 31 27 24 22 18 19 24 28 28 27 27 28 26 25 23 22 25 24 28 36 40 44 36 35 37 43 38 47 43 47 65
Wind_Direction_500mb
198 197 195 193 197 206 214 226 244 254 258 269 290 300 315 331 349 3 354 357 344 319 317 318 321 323 329 329 324 320 312 299 308 129 160 93 312 59 56 91 77 77 71
205 203 204 202 206 213 219 228 238 249 256 266 274 273 279 292 317 333 336 340 335 330 324 308 313 315 320 322 322 317 310 305 295 198 225 258 228 205 62 96 102 71 80
209 209 211 210 214 218 224 235 241 248 256 265 267 272 271 277 282 290 306 319 318 312 331 343 317 320 318 314 315 314 310 305 298 270 248 252 257 243 226 229 274 158 85
210 212 214 215 219 223 229 237 243 249 255 260 263 269 269 271 269 275 280 287 299 315 312 329 337 331 316 307 306 311 311 304 294 280 259 252 244 255 236 246 244 248 334
215 218 218 219 223 225 231 238 246 250 255 259 263 267 270 269 279 281 280 286 286 291 296 302 305 302 303 303 301 302 302 298 291 280 264 252 234 245 245 249 251 273 241
221 221 222 224 227 230 233 238 245 251 254 257 267 269 268 276 293 288 282 301 284 281 282 290 293 294 295 294 294 288 280 283 286 280 267 257 245 246 248 241 249 253 265
225 226 227 228 231 237 239 242 245 250 256 258 261 272 277 275 277 281 284 283 290 288 280 281 285 288 287 284 281 284 276 257 261 268 266 251 245 251 242 240 242 247 261
228 230 231 233 235 239 241 243 246 252 254 256 260 266 280 287 288 287 287 287 289 284 288 288 289 286 286 286 283 279 275 262 256 262 261 253 248 243 237 238 244 249 252
232 233 235 237 239 241 245 247 251 252 256 261 258 252 262 268 283 296 290 287 293 292 297 290 289 287 288 290 288 278 274 268 244 240 258 256 251 249 245 243 245 247 252
234 236 238 241 243 245 248 250 253 255 257 256 262 259 260 262 273 290 292 289 289 289 292 291 296 297 295 292 282 279 281 268 262 244 260 242 248 246 247 246 246 247 255
240 242 242 244 245 247 250 252 255 255 258 260 261 266 271 270 271 269 277 284 282 293 294 293 294 295 295 296 293 286 281 286 269 279 257 261 237 243 242 245 246 247 249
242 242 243 244 247 250 252 255 257 259 260 262 264 265 267 262 268 274 276 283 287 289 287 296 298 307 307 305 304 302 292 291 282 279 257 263 258 239 236 238 242 244 246
243 242 243 246 249 252 255 257 259 260 261 262 265 267 268 270 273 275 277 280 278 286 291 294 303 311 309 313 309 309 304 286 289 279 260 263 257 243 247 238 240 245 247
247 249 249 250 253 254 255 257 259 261 260 262 262 264 268 270 273 276 279 283 282 286 287 298 303 313 307 315 305 311 304 292 283 278 264 262 251 234 244 244 239 244 249
249 250 252 251 251 252 253 254 256 256 257 258 261 265 269 273 273 277 278 282 285 281 289 295 297 300 313 307 311 308 303 302 293 281 268 259 246 236 238 243 245 248 257
249 249 250 249 248 249 248 248 250 251 253 257 261 265 266 269 273 276 282 286 288 292 280 289 291 302 302 307 307 304 302 294 289 282 260 252 246 248 239 244 246 248 256
247 247 246 246 247 247 244 244 246 248 250 255 258 263 266 271 275 280 280 282 285 283 280 290 291 294 297 301 303 300 297 296 294 286 265 255 256 247 243 245 250 252 259
245 245 244 244 244 243 241 241 242 246 252 255 259 265 269 269 270 269 275 275 277 274 272 282 286 288 292 292 294 293 295 298 295 287 272 253 247 243 244 245 249 251 259
243 244 244 242 242 242 241 240 244 245 248 254 256 258 264 265 268 269 271 278 275 272 275 280 283 286 289 291 295 294 294 288 289 280 266 246 243 243 245 246 250 247 256
240 240 240 240 240 241 241 239 244 247 249 254 254 258 261 263 259 267 273 275 274 277 278 278 279 284 287 291 289 291 293 294 290 283 276 253 241 245 246 250 255 254 259
235 236 237 238 238 242 243 244 243 246 246 249 254 258 257 263 257 271 274 277 277 276 277 280 279 285 287 288 291 294 293 293 288 282 272 255 244 243 240 242 250 244 248
232 234 235 238 238 240 240 237 237 238 241 244 247 249 255 261 266 270 271 272 278 283 289 284 283 283 284 288 288 288 286 283 279 284 276 263 252 255 248 252 251 247 254
231 232 233 235 236 237 238 240 240 240 241 240 244 251 253 256 260 261 267 271 266 260 267 275 276 283 284 285 282 282 281 281 282 279 278 274 269 264 263 268 258 244 251
228 230 232 233 234 235 237 233 228 229 234 238 240 243 248 256 263 268 270 272 272 272 271 275 280 279 280 284 285 285 284 276 278 279 278 280 283 277 276 275 257 246 253
224 225 227 228 228 226 225 228 231 230 232 234 235 238 247 253 263 261 269 274 277 279 281 283 281 274 274 274 283 290 292 285 283 284 287 282 286 289 288 281 269 260 257
223 223 221 220 220 223 227 233 235 229 228 229 230 230 233 241 254 262 260 266 271 271 272 271 270 264 269 284 294 295 290 285 287 293 291 290 297 302 308 296 280 271 265
Wind_Speed_850mb
28 25 24 23 20 18 16 11 9 9 7 6 6 6 7 6 10 13 15 16 16 20 27 30 30 27 27 24 22 19 14 9 4 8 4 3 2 3 4 11 9 14 15
30 29 28 25 25 23 19 16 14 12 11 9 9 10 10 10 8 10 17 20 23 23 30 31 32 30 30 28 27 25 19 15 8 6 8 6 5 3 3 4 4 5 10
34 32 30 28 27 26 23 19 17 16 14 13 15 15 16 14 12 14 16 21 26 29 33 39 29 30 29 29 29 27 26 22 18 13 12 9 11 5 5 2 4 0 3
38 37 35 32 31 29 26 23 21 19 18 18 18 19 21 22 22 21 23 24 25 30 29 34 30 28 28 29 31 30 28 28 25 20 18 17 18 13 10 10 7 4 3
42 40 36 36 35 32 30 27 25 24 23 22 23 24 26 29 28 31 31 33 32 28 28 37 37 33 29 30 30 32 32 30 29 27 25 25 23 19 17 16 13 10 6
46 45 43 41 40 38 35 31 30 30 29 25 29 32 32 30 32 34 34 37 38 36 33 39 40 42 41 37 35 35 35 35 32 31 30 31 27 27 26 22 18 13 12
52 50 47 46 45 44 38 36 36 36 36 35 33 38 39 39 40 42 43 41 36 37 43 48 49 50 52 48 44 43 41 35 35 33 34 32 32 32 28 25 21 18 19
58 55 53 52 50 48 45 45 44 42 42 41 34 32 25 30 38 33 35 35 36 39 44 49 53 58 60 60 57 54 49 40 38 36 33 32 35 35 31 29 27 26 24
62 62 58 57 55 53 55 51 50 49 48 47 44 36 17 17 22 34 33 36 43 44 48 54 58 61 63 67 66 65 59 51 46 42 45 39 41 40 36 35 32 28 26
69 67 62 61 60 60 60 58 56 55 53 54 54 54 55 55 37 38 41 43 55 64 63 63 67 71 71 75 75 74 68 70 63 57 46 47 46 45 43 39 38 33 31
68 67 66 65 66 65 63 62 62 60 62 61 61 58 59 59 62 67 68 68 58 75 75 72 77 78 82 84 85 80 82 89 84 67 56 57 53 50 47 46 43 38 34
70 71 69 70 71 69 69 66 65 66 66 66 66 66 67 56 51 62 70 79 75 66 63 77 73 70 68 73 73 73 75 81 87 77 62 68 58 57 52 50 48 44 39
80 76 75 75 72 68 68 68 69 72 71 70 69 71 71 73 70 71 75 78 70 73 78 81 73 70 65 65 53 52 61 73 75 79 67 71 63 61 59 50 49 48 43
80 71 73 71 68 67 65 65 67 67 67 67 67 70 67 67 65 65 70 72 77 77 71 74 65 60 54 57 45 52 51 56 69 77 72 71 68 56 59 57 54 51 48
77 75 67 61 62 62 63 63 63 60 60 60 62 56 53 51 52 56 64 62 68 63 63 63 65 59 64 55 57 54 50 54 57 70 69 78 66 60 58 58 59 57 54
75 70 63 59 58 59 58 57 58 56 56 54 47 49 54 54 55 58 57 56 51 59 74 67 67 73 65 59 68 57 56 53 54 61 69 80 65 61 57 60 60 56 57
72 67 60 58 56 55 55 55 55 52 51 47 52 56 57 53 54 48 47 52 47 51 64 66 70 69 68 68 62 58 51 51 58 60 63 71 62 64 53 56 62 56 55
69 63 61 59 57 56 56 57 54 49 53 54 53 55 55 49 50 55 52 63 56 54 55 65 72 72 72 69 60 53 57 56 51 50 49 58 67 63 51 60 63 54 59
71 67 64 63 61 59 57 54 51 55 56 58 51 57 55 54 54 57 58 66 65 61 66 71 75 73 65 59 65 65 60 55 54 49 50 60 66 63 58 63 64 60 59
70 69 67 65 63 61 58 57 57 58 56 55 56 58 59 61 53 56 61 62 62 68 69 68 63 64 64 61 51 48 49 48 46 46 46 53 60 60 62 69 63 63 58
71 69 67 66 65 64 61 58 56 57 56 56 55 55 56 55 66 63 60 59 57 60 57 57 61 57 48 46 45 46 45 42 42 45 43 54 63 65 68 70 68 69 61
68 68 69 67 62 61 60 56 55 52 53 53 56 54 54 53 56 51 47 40 31 26 26 35 44 48 49 44 40 42 40 40 43 39 44 51 59 68 70 75 73 74 64
66 64 62 60 59 60 60 58 57 56 54 47 44 44 47 45 44 39 31 26 23 27 32 36 42 43 44 40 42 41 37 36 39 42 41 43 52 68 67 69 71 77 69
60 59 58 58 59 57 51 44 42 41 40 41 41 41 40 37 32 28 29 28 30 33 35 39 43 40 38 35 36 35 32 32 35 39 42 54 53 61 65 69 65 77 73
56 55 54 53 50 47 45 42 39 39 40 39 37 33 29 28 25 21 23 25 29 33 32 31 28 27 28 27 24 24 26 30 35 40 44 51 50 58 58 56 58 63 64
52 52 51 48 46 46 44 42 37 36 37 33 31 27 24 22 18 19 24 28 28 27 27 28 26 25 23 22 25 24 28 36 40 44 36 35 37 43 38 47 43 47 65
Wind_Direction_850mb
198 197 195 193 197 206 214 226 244 254 258 269 290 300 315 331 349 3 354 357 344 319 317 318 321 323 329 329 324 320 312 299 308 129 160 93 312 59 56 91 77 77 71
205 203 204 202 206 213 219 228 238 249 256 266 274 273 279 292 317 333 336 340 335 330 324 308 313 315 320 322 322 317 310 305 295 198 225 258 228 205 62 96 102 71 80
209 209 211 210 214 218 224 235 241 248 256 265 267 272 271 277 282 290 306 319 318 312 331 343 317 320 318 314 315 314 310 305 298 270 248 252 257 243 226 229 274 158 85
210 212 214 215 219 223 229 237 243 249 255 260 263 269 269 271 269 275 280 287 299 315 312 329 337 331 316 307 306 311 311 304 294 280 259 252 244 255 236 246 244 248 334
215 218 218 219 223 225 231 238 246 250 255 259 263 267 270 269 279 281 280 286 286 291 296 302 305 302 303 303 301 302 302 298 291 280 264 252 234 245 245 249 251 273 241
221 221 222 224 227 230 233 238 245 251 254 257 267 269 268 276 293 288 282 301 284 281 282 290 293 294 295 294 294 288 280 283 286 280 267 257 245 246 248 241 249 253 265
225 226 227 228 231 237 239 242 245 250 256 258 261 272 277 275 277 281 284 283 290 288 280 281 285 288 287 284 281 284 276 257 261 268 266 251 245 251 242 240 242 247 261
228 230 231 233 235 239 241 243 246 252 254 256 260 266 280 287 288 287 287 287 289 284 288 288 289 286 286 286 283 279 275 262 256 262 261 253 248 243 237 238 244 249 252
232 233 235 237 239 241 245 247 251 252 256 261 258 252 262 268 283 296 290 287 293 292 297 290 289 287 288 290 288 278 274 268 244 240 258 256 251 249 245 243 245 247 252
234 236 238 241 243 245 248 250 253 255 257 256 262 259 260 262 273 290 292 289 289 289 292 291 296 297 295 292 282 279 281 268 262 244 260 242 248 246 247 246 246 247 255
240 242 242 244 245 247 250 252 255 255 258 260 261 266 271 270 271 269 277 284 282 293 294 293 294 295 295 296 293 286 281 286 269 279 257 261 237 243 242 245 246 247 249
242 242 243 244 247 250 252 255 257 259 260 262 264 265 267 262 268 274 276 283 287 289 287 296 298 307 307 305 304 302 292 291 282 279 257 263 258 239 236 238 242 244 246
243 242 243 246 249 252 255 257 259 260 261 262 265 267 268 270 273 275 277 280 278 286 291 294 303 311 309 313 309 309 304 286 289 279 260 263 257 243 247 238 240 245 247
247 249 249 250 253 254 255 257 259 261 260 262 262 264 268 270 273 276 279 283 282 286 287 298 303 313 307 315 305 311 304 292 283 278 264 262 251 234 244 244 239 244 249
249 250 252 251 251 252 253 254 256 256 257 258 261 265 269 273 273 277 278 282 285 281 289 295 297 300 313 307 311 308 303 302 293 281 268 259 246 236 238 243 245 248 257
249 249 250 249 248 249 248 248 250 251 253 257 261 265 266 269 273 276 282 286 288 292 280 289 291 302 302 307 307 304 302 294 289 282 260 252 246 248 239 244 246 248 256
247 247 246 246 247 247 244 244 246 248 250 255 258 263 266 271 275 280 280 282 285 283 280 290 291 294 297 301 303 300 297 296 294 286 265 255 256 247 243 245 250 252 259
245 245 244 244 244 243 241 241 242 246 252 255 259 265 269 269 270 269 275 275 277 274 272 282 286 288 292 292 294 293 295 298 295 287 272 253 247 243 244 245 249 251 259
243 244 244 242 242 242 241 240 244 245 248 254 256 258 264 265 268 269 271 278 275 272 275 280 283 286 289 291 295 294 294 288 289 280 266 246 243 243 245 246 250 247 256
240 240 240 240 240 241 241 239 244 247 249 254 254 258 261 263 259 267 273 275 274 277 278 278 279 284 287 291 289 291 293 294 290 283 276 253 241 245 246 250 255 254 259
235 236 237 238 238 242 243 244 243 246 246 249 254 258 257 263 257 271 274 277 277 276 277 280 279 285 287 288 291 294 293 293 288 282 272 255 244 243 240 242 250 244 248
232 234 235 238 238 240 240 237 237 238 241 244 247 249 255 261 266 270 271 272 278 283 289 284 283 283 284 288 288 288 286 283 279 284 276 263 252 255 248 252 251 247 254
231 232 233 235 236 237 238 240 240 240 241 240 244 251 253 256 260 261 267 271 266 260 267 275 276 283 284 285 282 282 281 281 282 279 278 274 269 264 263 268 258 244 251
228 230 232 233 234 235 237 233 228 229 234 238 240 243 248 256 263 268 270 272 272 272 271 275 280 279 280 284 285 285 284 276 278 279 278 280 283 277 276 275 257 246 253
224 225 227 228 228 226 225 228 231 230 232 234 235 238 247 253 263 261 269 274 277 279 281 283 281 274 274 274 283 290 292 285 283 284 287 282 286 289 288 281 269 260 257
223 223 221 220 220 223 227 233 235 229 228 229 230 230 233 241 254 262 260 266 271 271 272 271 270 264 269 284 294 295 290 285 287 293 291 290 297 302 308 296 280 271 265